sat.trackr.live / text

‹ back to catalog

STARLINK-35368

NORAD 65830 · 2025-221H

PAYLOAD ACTIVE UNKNOWN

§ Identity

Operator
Country
US
Launch date
2025-09-29
Launch site
AFWTR
Launch vehicle
Mass (kg)
RCS (m²)

Purposes: comms

External: N2YO · Heavens-Above · Gunter

§ Orbital elements

Epoch: 2026-09-20T22:54:35.077824Z

Period
93.85 min
Inclination
53.1580°
Eccentricity
0.0001785
Mean motion
15.34396859 rev/d
Perigee alt
461.5 km
Apogee alt
463.9 km
Semi-major
6,840.8 km
B*
3.7211e-4
RAAN
259.6397°
Arg perigee
95.6644°
Mean anomaly
264.4563°
Rev number
5,596

§ Raw data

STARLINK-353681 65830U 25221H   26263.95457266  .00012215  00000+0  37211-3 0  99942 65830  53.1580 259.6397 0001785  95.6644 264.4563 15.34396859 55960

JSON: /api/v1/satellites/65830 · /tle

For live sub-satellite position, see the globe view (requires WebGL).

§ Visibility from observer

Set your observer location to see the next 7 days of passes ≥ 10°. The values pass through the URL so the page stays shareable.

No JS? Fill the form by hand. The geolocation button needs JavaScript.